Location: East Irvine
(33.6759°N, 117.7598°W)
Time: 01:05:27
(UTC+00:00)

SL-19 R/B - Pass Details

Date: 15 November 2025
Orbit: 795 x 1008 km, 99.6° (Epoch: 07 December)

Event Time Altitude Azimuth Distance (km) Brightness Sun altitude
Rises 02:29:32 0° 164° (SSE) 3,357 7.3 -21.1°
Reaches altitude 10° 02:31:54 10° 164° (SSE) 2,405 6.5 -21.6°
Maximum altitude 02:37:12 90° 70° (ENE) 807 4.0 -22.7°
Drops below altitude 10° 02:42:24 10° 346° (NNW) 2,369 6.6 -23.8°
Sets 02:44:43 0° 347° (NNW) 3,304 7.4 -24.2°
